Location: Allos
(44.2333°N, 6.6333°E)
Time: 22:50:10
(UTC+00:00)

Cosmos 1821 Rocket - Pass Details

Date: 19 April 2021
Orbit: 946 x 1003 km, 82.9° (Epoch: 16 May)

Event Time Altitude Azimuth Distance (km) Brightness Sun altitude
Rises 00:24:30 0° 4° (N) 3,700 8.1 -33.3°
Reaches altitude 10° 00:27:51 10° 21° (NNE) 2,757 7.2 -33.2°
Maximum altitude 00:32:16 19° 66° (ENE) 2,157 6.1 -32.9°
Enters shadow 00:36:19 11° 108° (ESE) 2,683 6.3 -32.7°
